St Augustine, FL 40NM ENE of St Augustine, FL (41012)

Conditions for Thursday

Daily
Weekly
Monthly
Marine Data Graph
Ad Blocker Enabled

Marine & Boating Location Search

Enter a coastal zip code for marine weather.

General Information

Location: 30.042 North -80.534 West
Buoy Type: 3-meter discus buoy
Buoy Hull: 3DV13
Payload: AMPS payload
Owned by: NDBC
Windspeed: Measured by obtained from anemometer
Sea Surface: Measured by Intake
Note: See the notice on loss of funding from the Coastal Storms Program for this station:
http://www.nws.noaa.gov/om/notification/scn14-06buoy_staugustine_fl.htm
Station 41012 has been disestablished on 02/19/2014.


Weather and Wave Data

Time Temp Humidity Wind Dominant Wave Wind Wave Wave Swell Pressure
  Air
(°F)
Water
(°F)
  Dir Speed
(kts)
Speed
(mph)
Period
(sec)
Height
(ft)
Range
(ft)
Period
(sec)
Height
(ft)
Range
(ft)
Period
(sec)
Height
(ft)
Range
(ft)
Atmo.
(in)
Tend.
(in)
20:50 73 77 51 SSW 7.8 8.9 10 3.61 exactly 3.6 4 1.64 0.82 - 2.46 10 3.28 2.46 - 4.10 30.12 -0.01
21:50 70 77 67 North 7.8 8.9 9 3.94 exactly 3.9 3 1.64 0.82 - 2.46 9 3.28 2.46 - 4.10 30.12 -
22:50 71 78 63 NNE 7.8 8.9 10 3.94 exactly 3.9 4 1.64 0.82 - 2.46 10 3.28 2.46 - 4.10 30.12 -
23:50 72 78 60 NE 7.8 8.9 10 3.94 exactly 3.9 4 1.64 0.82 - 2.46 10 3.28 2.46 - 4.10 30.10 -0.02
00:50 72 78 65 NE 11.7 13.4 10 3.61 exactly 3.6 5 1.64 0.82 - 2.46 10 3.28 2.46 - 4.10 30.08 -0.03
01:50 71 78 68 ENE 11.7 13.4 9 3.94 exactly 3.9 4 1.64 0.82 - 2.46 9 3.28 2.46 - 4.10 30.07 -0.04
02:50 71 77 67 ENE 7.8 8.9 10 3.94 exactly 3.9 4 1.64 0.82 - 2.46 10 3.28 2.46 - 4.10 30.07 -0.03
03:50 72 77 65 NE 13.6 15.7 10 4.27 exactly 4.3 5 1.64 0.82 - 2.46 10 3.28 2.46 - 4.10 30.05 -0.03
04:50 72 78 68 NE 9.7 11.2 10 3.94 exactly 3.9 4 1.64 0.82 - 2.46 10 3.28 2.46 - 4.10 30.05 -0.02
05:50 74 78 49 East 11.7 13.4 9 4.27 exactly 4.3 4 1.64 0.82 - 2.46 9 3.28 2.46 - 4.10 30.05 -0.02
06:50 74 78 51 East 11.7 13.4 10 4.59 exactly 4.6 4 3.28 2.46 - 4.10 10 3.28 2.46 - 4.10 30.06 +0.01
07:50 74 78 48 East 11.7 13.4 9 4.27 exactly 4.3 4 3.28 2.46 - 4.10 9 3.28 2.46 - 4.10 30.06 +0.01
08:50 74 78 49 East 11.7 13.4 9 4.27 exactly 4.3 4 3.28 2.46 - 4.10 9 3.28 2.46 - 4.10 30.08 +0.03
09:50 74 78 50 East 13.6 15.7 9 4.27 exactly 4.3 4 3.28 2.46 - 4.10 9 3.28 2.46 - 4.10 30.09 +0.03
10:50 75 78 40 East 13.6 15.7 10 4.27 exactly 4.3 4 3.28 2.46 - 4.10 10 3.28 2.46 - 4.10 30.09 +0.03
11:50 74 78 45 East 11.7 13.4 10 4.27 exactly 4.3 4 3.28 2.46 - 4.10 10 3.28 2.46 - 4.10 30.06 -0.01
12:50 74 78 45 East 11.7 13.4 10 4.27 exactly 4.3 4 3.28 2.46 - 4.10 10 3.28 2.46 - 4.10 30.04 -0.05
13:50 75 78 41 East 11.7 13.4 10 4.27 exactly 4.3 5 3.28 2.46 - 4.10 10 3.28 2.46 - 4.10 30.02 -0.07
14:50 75 78 39 East 13.6 15.7 9 4.59 exactly 4.6 5 3.28 2.46 - 4.10 9 3.28 2.46 - 4.10 30.01 -0.06
15:50 75 78 42 East 13.6 15.7 9 4.59 exactly 4.6 4 3.28 2.46 - 4.10 9 3.28 2.46 - 4.10 30.01 -0.03
16:50 72 78 65 East 15.6 17.9 10 4.92 exactly 4.9 5 3.28 2.46 - 4.10 10 3.28 2.46 - 4.10 30.01 -
17:50 72 78 59 East 13.6 15.7 10 4.92 exactly 4.9 5 3.28 2.46 - 4.10 10 3.28 2.46 - 4.10 30.01 -
18:50 73 78 59 East 7.8 8.9 10 4.92 exactly 4.9 4 1.64 0.82 - 2.46 10 4.92 4.10 - 5.74 30.02 +0.02
19:50 70 78 66 ESE 11.7 13.4 6 4.92 exactly 4.9 5 3.28 2.46 - 4.10 6 3.28 2.46 - 4.10 30.02 +0.01
21:50 72 78 59 East 7.8 8.9 11 5.25 exactly 5.2 4 1.64 0.82 - 2.46 11 4.92 4.10 - 5.74 30.01 -0.01
22:50 71 78 67 ENE 5.8 6.7 6 5.25 exactly 5.2 3 1.64 0.82 - 2.46 6 4.92 4.10 - 5.74 30.01 -0.01
23:50 72 78 66 East 3.9 4.5 6 5.58 exactly 5.6 4 1.64 0.82 - 2.46 6 4.92 4.10 - 5.74 29.99 -0.02
00:50 72 78 68 East 5.8 6.7 7 6.23 exactly 6.2 3 1.64 0.82 - 2.46 7 6.56 5.74 - 7.38 29.98 -0.04
01:50 72 78 67 East 7.8 8.9 7 6.56 exactly 6.6 4 1.64 0.82 - 2.46 7 6.56 5.74 - 7.38 29.98 -0.03
02:50 73 78 66 East 7.8 8.9 8 6.56 exactly 6.6 4 1.64 0.82 - 2.46 8 6.56 5.74 - 7.38 29.98 -0.01
03:50 73 77 67 East 5.8 6.7 7 7.22 exactly 7.2 4 1.64 0.82 - 2.46 7 6.56 5.74 - 7.38 29.97 -0.01

Detailed Wave Spectra

Time Water Depth Wave Height Spectral Peak Period Average Wave Period Sampling Interval Wave Record
20:00 125 ft 3.81 ft 9.1 sec 6.2 sec 0.6 sec 2400 sec
21:00 125 ft 3.67 ft 10.0 sec 6.1 sec 0.6 sec 2400 sec
22:00 125 ft 3.84 ft 9.1 sec 6.4 sec 0.6 sec 2400 sec
23:00 125 ft 3.90 ft 10.0 sec 6.5 sec 0.6 sec 2400 sec
00:00 125 ft 3.81 ft 10.0 sec 6.6 sec 0.6 sec 2400 sec
01:00 125 ft 3.48 ft 10.0 sec 5.9 sec 0.6 sec 2400 sec
02:00 125 ft 3.90 ft 9.1 sec 6.3 sec 0.6 sec 2400 sec
03:00 125 ft 3.90 ft 10.0 sec 6.0 sec 0.6 sec 2400 sec
04:00 125 ft 4.23 ft 10.0 sec 5.8 sec 0.6 sec 2400 sec
05:00 125 ft 4.04 ft 10.0 sec 5.5 sec 0.6 sec 2400 sec
06:00 125 ft 4.40 ft 9.1 sec 5.5 sec 0.6 sec 2400 sec
07:00 125 ft 4.49 ft 10.0 sec 5.3 sec 0.6 sec 2400 sec
08:00 125 ft 4.36 ft 9.1 sec 5.1 sec 0.6 sec 2400 sec
09:00 125 ft 4.17 ft 9.1 sec 5.0 sec 0.6 sec 2400 sec
10:00 125 ft 4.33 ft 9.1 sec 5.2 sec 0.6 sec 2400 sec
11:00 125 ft 4.13 ft 10.0 sec 5.0 sec 0.6 sec 2400 sec
12:00 125 ft 4.23 ft 10.0 sec 5.1 sec 0.6 sec 2400 sec
13:00 125 ft 4.23 ft 10.0 sec 5.2 sec 0.6 sec 2400 sec
14:00 125 ft 4.23 ft 10.0 sec 5.0 sec 0.6 sec 2400 sec
15:00 125 ft 4.53 ft 9.1 sec 5.3 sec 0.6 sec 2400 sec
16:00 125 ft 4.72 ft 9.1 sec 5.5 sec 0.6 sec 2400 sec
17:00 125 ft 4.92 ft 10.0 sec 5.6 sec 0.6 sec 2400 sec
18:00 125 ft 4.95 ft 10.0 sec 5.2 sec 0.6 sec 2400 sec
19:00 125 ft 4.79 ft 10.0 sec 5.3 sec 0.6 sec 2400 sec
20:00 125 ft 4.95 ft 5.9 sec 5.4 sec 0.6 sec 2400 sec
21:00 125 ft 5.02 ft 9.1 sec 5.4 sec 0.6 sec 2400 sec
22:00 125 ft 5.12 ft 11.4 sec 5.6 sec 0.6 sec 2400 sec
23:00 125 ft 5.09 ft 5.6 sec 5.6 sec 0.6 sec 2400 sec
00:00 125 ft 5.48 ft 6.3 sec 5.6 sec 0.6 sec 2400 sec
01:00 125 ft 6.14 ft 7.1 sec 5.8 sec 0.6 sec 2400 sec
02:00 125 ft 6.40 ft 7.1 sec 6.0 sec 0.6 sec 2400 sec
03:00 125 ft 6.50 ft 7.7 sec 6.1 sec 0.6 sec 2400 sec